星链-34443 (STARLINK-34443)

导读

STARLINK-34443是美国SpaceX星链星座的一员,于2025年6月8日发射升空。星链项目旨在构建全球卫星互联网星座,为全球各地提供高速宽带互联网接入服务,尤其覆盖地面网络难以到达的偏远地区。STARLINK-34443的加入,进一步扩充了星链低轨卫星星座的规模,提升星座的服务覆盖能力与网络稳定性,助力全球互联基础设施的完善。

Basic Information
目录编号:
64296
目录名称:
STARLINK-34443
国际标识:
2025-123F
轨道中心:
EARTH
卫星名称:
星链-34443
卫星全名:
星链-34443 (STARLINK-34443)
卫星状态:
在轨 (已飞行371 天)
发射日期:
2025-06-08 UTC
国别 :
美国 (US)
星等 :
--
Orbit Information
数据来源 国际轨道数据 AOE轨道数据
星历时间 2026-06-14T02:55:47+0800
6小时前
查看轨道信息
2026-06-10T07:00:00+0800
4天前
查看轨道信息
半长轴 6950.175km 6950.087km
偏心率 0.0002188 0.0001933
轨道倾角 70.000° 70.003°
近地点辐角 262.330° 265.652°
升交点赤经 312.141° 321.798°
平近点角 97.761° 319.178°
近地点 570.517km 570.606km
远地点 573.559km 573.294km
周期 96.107分钟 96.105分钟
每日圈数 14.98336 14.983643
Detailed Information
固有亮度:
5
最大亮度:
2.5
卫星平台:
Starlink V1.0
覆盖范围:
全球
运营商:
太空探索技术公司
运营商所在国:
美国
制造商(研发单位):
太空探索技术公司
制造商所在国:
美国
使用方式:
暂无
Satellite Introduction
Starlink 计划是 SpaceX 推出的全球卫星互联网项目,通过发射低轨道卫星,为全球尤其是偏远地区提供高速、低延迟的互联网服务。自 2019 年起,Starlink 已部署数千颗卫星,旨在缩小全球数字鸿沟,推动互联网普及。该项目还为军事、航空等行业提供通信支持,带来广泛经济效益。
2D Orbit Map
3D Orbit Map
Orbit Altitude Analysis Chart
Orbit Inclination Analysis Chart
Orbit Comprehensive Analysis Chart
View Comprehensive Chart